Quincy, IL

1:49 PM CST on November 21, 2017 (GMT -0600)
Quincy Regional-Baldwin

Weather History for KUIN - May, 2014

Change the Weather History Date:

Wednesday, May 7, 2014

  Actual Average Record
Temperature  
Mean Temperature 76 °F 60 °F  
Max Temperature 85 °F 70 °F 90 °F (1940)
Min Temperature 67 °F 50 °F 32 °F (1906)
Degree Days  
Heating Degree Days 0 6  
Month to date heating degree days 43 47  
Since 1 July heating degree days 6166 5477  
Cooling Degree Days 11 1  
Month to date cooling degree days 13 7  
Year to date cooling degree days 17 25  
Growing Degree Days 26 (Base 50)    
Moisture  
Dew Point 61 °F    
Average Humidity 57    
Maximum Humidity 70    
Minimum Humidity 44    
Precipitation  
Precipitation 0.00 in 0.14 in 2.13 in (1961)
Month to date precipitation T 0.94  
Year to date precipitation 6.25 10.49  
Sea Level Pressure  
Sea Level Pressure 29.70 in    
Wind  
Wind Speed 13 mph (South)    
Max Wind Speed 23 mph    
Max Gust Speed 29 mph    
Visibility 10 miles    
Events      
T = Trace of Precipitation, MM = Missing Value Source: NWS Daily Summary

Daily Weather History Graph

Daily Weather History Graph

Search for Another Location

Airport or City:

Trip Planner

Search our weather history database for the weather conditions in past years. The results will help you decide how hot, cold, wet, or windy it might be!

Date:

Astronomy

May. 07, 2014 Rise Set
Actual Time 5:57 AM CDT 8:05 PM CDT
Civil Twilight 5:27 AM CDT 8:35 PM CDT
Nautical Twilight 4:51 AM CDT 9:12 PM CDT
Astronomical Twilight 4:11 AM CDT 9:52 PM CDT
Moon 1:10 PM CDT (5/7) 1:56 AM CDT (5/7)
Length of Visible Light 15h 07m
Length of Day
14h 07m
First Quarter, 55% of the Moon is Illuminated
May 7
First Quarter
May 14
Full
May 21
Last Quarter
May 28
New
Jun 5
First Quarter

Hourly Weather History & Observations

Time (CDT) Temp. Heat Index Dew Point Humidity Pressure Visibility Wind Dir Wind Speed Gust Speed Precip Events Conditions
12:54 AM 73.9 °F - 59.0 °F 59% 29.66 in 10.0 mi South 13.8 mph - N/A   Clear
1:54 AM 72.0 °F - 59.0 °F 64% 29.67 in 10.0 mi South 10.4 mph - N/A   Clear
2:54 AM 72.0 °F - 57.9 °F 61% 29.67 in 10.0 mi South 8.1 mph - N/A   Clear
3:54 AM 71.1 °F - 59.0 °F 66% 29.68 in 10.0 mi South 10.4 mph - N/A   Clear
4:54 AM 68.0 °F - 57.9 °F 70% 29.69 in 10.0 mi SSE 5.8 mph - N/A   Clear
5:54 AM 68.0 °F - 57.9 °F 70% 29.70 in 10.0 mi SSE 9.2 mph - N/A   Clear
6:54 AM 69.1 °F - 57.9 °F 68% 29.71 in 10.0 mi South 11.5 mph - N/A   Clear
7:54 AM 70.0 °F - 59.0 °F 68% 29.72 in 10.0 mi South 9.2 mph - N/A   Clear
8:54 AM 73.0 °F - 61.0 °F 66% 29.72 in 10.0 mi South 11.5 mph - N/A   Clear
9:54 AM 75.0 °F - 61.0 °F 62% 29.71 in 10.0 mi South 16.1 mph - N/A   Clear
10:54 AM 75.9 °F - 61.0 °F 60% 29.73 in 10.0 mi South 16.1 mph 27.6 mph N/A   Clear
11:54 AM 80.6 °F 81.8 °F 62.6 °F 54% 29.75 in 10.0 mi South 15.0 mph 23.0 mph N/A   Clear
12:54 PM 82.9 °F 84.4 °F 64.0 °F 53% 29.70 in 10.0 mi South 10.4 mph 21.9 mph N/A   Clear
1:54 PM 82.9 °F 83.7 °F 62.1 °F 49% 29.70 in 10.0 mi SE 13.8 mph 23.0 mph N/A   Clear
2:54 PM 82.9 °F 83.3 °F 61.0 °F 47% 29.70 in 10.0 mi SSE 19.6 mph 26.5 mph N/A   Clear
3:54 PM 84.0 °F 84.4 °F 61.0 °F 46% 29.69 in 10.0 mi South 17.3 mph 23.0 mph N/A   Clear
4:54 PM 84.0 °F 84.4 °F 61.0 °F 46% 29.69 in 10.0 mi South 15.0 mph 24.2 mph N/A   Clear
5:54 PM 84.0 °F 84.5 °F 62.1 °F 47% 29.68 in 10.0 mi South 16.1 mph 24.2 mph N/A   Clear
6:54 PM 82.9 °F 84.0 °F 63.0 °F 51% 29.69 in 10.0 mi SSE 13.8 mph 21.9 mph N/A   Clear
7:54 PM 81.0 °F 82.2 °F 63.0 °F 54% 29.69 in 10.0 mi South 11.5 mph - N/A   Clear
8:54 PM 79.0 °F - 62.1 °F 56% 29.70 in 10.0 mi South 12.7 mph 20.7 mph N/A   Clear
9:54 PM 78.1 °F - 63.0 °F 60% 29.72 in 10.0 mi South 13.8 mph 23.0 mph N/A   Clear
10:54 PM 75.9 °F - 63.0 °F 64% 29.73 in 10.0 mi South 13.8 mph - N/A   Clear
11:54 PM 75.0 °F - 63.0 °F 66% 29.74 in 10.0 mi South 15.0 mph 23.0 mph N/A   Clear